Location: Dammartin
(48.9032°N, 1.6195°E)
Time: 21:42:50
(UTC+00:00)

CSL-04 Rocket - Pass Details

Date: 03 February 2023
Orbit: 806 x 859 km, 98.8° (Epoch: 21 March)

Event Time Altitude Azimuth Distance (km) Brightness Sun altitude
Exits shadow 18:47:13 34° 92° (E) 1,331 4.2 -18.8°
Maximum altitude 18:48:21 38° 64° (ENE) 1,244 4.1 -19.0°
Drops below altitude 10° 18:53:18 10° 358° (N) 2,450 6.1 -19.8°
Sets 18:55:49 0° 351° (N) 3,397 6.9 -20.2°
